Watertown, WI

6:23 AM CST on February 20, 2018 (GMT -0600)
Watertown Municipal

Weather History for KRYV - October, 2013

Change the Weather History Date:

Friday, October 18, 2013

  Actual Average Record
Temperature  
Mean Temperature 40 °F -  
Max Temperature 48 °F 58 °F 86 °F (1950)
Min Temperature 33 °F 37 °F 19 °F (1952)
Degree Days  
Heating Degree Days 24    
Moisture  
Dew Point 37 °F    
Average Humidity 84    
Maximum Humidity 97    
Minimum Humidity 71    
Precipitation  
Precipitation 0.00 in - - ()
Sea Level Pressure  
Sea Level Pressure 29.86 in    
Wind  
Wind Speed 4 mph (WSW)    
Max Wind Speed 15 mph    
Max Gust Speed 20 mph    
Visibility 10 miles    
Events      
Averages and records for this station are not official NWS values.
T = Trace of Precipitation, MM = Missing Value Source: NWS Daily Summary

Daily Weather History Graph

Daily Weather History Graph

Search for Another Location

Airport or City:

Trip Planner

Search our weather history database for the weather conditions in past years. The results will help you decide how hot, cold, wet, or windy it might be!

Date:

Astronomy

Oct. 18, 2013 Rise Set
Actual Time 7:12 AM CDT 6:06 PM CDT
Civil Twilight 6:43 AM CDT 6:35 PM CDT
Nautical Twilight 6:10 AM CDT 7:08 PM CDT
Astronomical Twilight 5:37 AM CDT 7:41 PM CDT
Moon 5:55 PM CDT (10/18) 6:47 AM CDT (10/18)
Length of Visible Light 11h 51m
Length of Day
10h 54m
Full, 100% of the Moon is Illuminated
Oct 18
Full
Oct 18
Full
Oct 26
Last Quarter
Nov 3
New
Nov 9
First Quarter

Hourly Weather History & Observations

Time (CDT) Temp. Windchill Dew Point Humidity Pressure Visibility Wind Dir Wind Speed Gust Speed Precip Events Conditions
12:15 AM 36.1 °F - 34.3 °F 93% 29.81 in 10.0 mi Calm Calm - N/A   Clear
12:35 AM 35.8 °F - 34.2 °F 94% 29.81 in 10.0 mi Calm Calm - N/A   Clear
12:55 AM 36.3 °F - 34.7 °F 94% 29.81 in 10.0 mi Calm Calm - N/A   Clear
1:15 AM 35.2 °F - 33.8 °F 94% 29.81 in 10.0 mi Calm Calm - N/A   Clear
1:35 AM 34.9 °F - 33.8 °F 96% 29.81 in 10.0 mi Calm Calm - N/A   Clear
1:55 AM 34.3 °F - 33.4 °F 97% 29.81 in 5.0 mi Calm Calm - N/A   Clear
2:15 AM 34.2 °F - 32.5 °F 94% 29.81 in 10.0 mi Calm Calm - N/A   Clear
2:35 AM 35.1 °F - 33.8 °F 95% 29.81 in 10.0 mi Calm Calm - N/A   Clear
2:55 AM 33.4 °F - 32.2 °F 95% 29.81 in 7.0 mi Calm Calm - N/A   Clear
3:15 AM 34.5 °F - 33.6 °F 97% 29.80 in 10.0 mi Calm Calm - N/A   Mostly Cloudy
3:35 AM 36.3 °F - 35.1 °F 95% 29.80 in 10.0 mi Calm Calm - N/A   Overcast
3:55 AM 38.7 °F - 36.3 °F 91% 29.80 in 10.0 mi Calm Calm - N/A   Overcast
4:15 AM 40.1 °F - 37.0 °F 89% 29.80 in 10.0 mi Calm Calm - N/A   Overcast
4:35 AM 40.1 °F - 37.0 °F 89% 29.79 in 10.0 mi Calm Calm - N/A   Overcast
4:55 AM 39.9 °F 37.8 °F 36.9 °F 89% 29.79 in 10.0 mi South 3.5 mph - N/A   Overcast
5:15 AM 40.1 °F 36.9 °F 37.0 °F 89% 29.80 in 10.0 mi SSW 4.6 mph - N/A   Overcast
5:35 AM 38.7 °F 35.2 °F 36.3 °F 91% 29.80 in 10.0 mi SSW 4.6 mph - N/A   Scattered Clouds
5:55 AM 37.9 °F 34.4 °F 35.6 °F 91% 29.80 in 10.0 mi SW 4.6 mph - N/A   Clear
6:15 AM 38.3 °F 34.8 °F 35.8 °F 91% 29.81 in 10.0 mi SW 4.6 mph - N/A   Scattered Clouds
6:35 AM 37.6 °F 35.1 °F 35.6 °F 93% 29.81 in 10.0 mi SW 3.5 mph - N/A   Scattered Clouds
6:55 AM 38.3 °F 35.9 °F 36.1 °F 92% 29.82 in 10.0 mi WSW 3.5 mph - N/A   Mostly Cloudy
7:15 AM 38.5 °F - 36.3 °F 92% 29.82 in 10.0 mi Calm Calm - N/A   Mostly Cloudy
7:35 AM 37.6 °F 35.1 °F 36.0 °F 94% 29.83 in 10.0 mi SW 3.5 mph - N/A   Scattered Clouds
7:55 AM 38.5 °F 35.0 °F 37.0 °F 95% 29.84 in 10.0 mi SW 4.6 mph - N/A   Scattered Clouds
8:15 AM 39.9 °F 36.7 °F 38.7 °F 95% 29.84 in 7.0 mi SW 4.6 mph - N/A   Clear
8:35 AM 42.3 °F 39.4 °F 40.5 °F 93% 29.85 in 10.0 mi SW 4.6 mph - N/A   Scattered Clouds
8:55 AM 43.0 °F 38.8 °F 41.0 °F 93% 29.85 in 10.0 mi SSW 6.9 mph - N/A   Mostly Cloudy
9:15 AM 44.1 °F 40.8 °F 41.9 °F 92% 29.86 in 10.0 mi SW 5.8 mph - N/A   Overcast
9:35 AM 44.6 °F 40.2 °F 42.6 °F 93% 29.86 in 10.0 mi SW 8.1 mph - N/A   Overcast
9:55 AM 45.0 °F 42.6 °F 42.8 °F 92% 29.87 in 10.0 mi SW 4.6 mph - N/A   Overcast
10:15 AM 45.5 °F 41.8 °F 42.4 °F 89% 29.87 in 10.0 mi SW 6.9 mph - N/A   Overcast
10:35 AM 45.5 °F 41.8 °F 42.8 °F 90% 29.87 in 10.0 mi SW 6.9 mph - N/A   Overcast
10:55 AM 46.6 °F - 43.2 °F 88% 29.87 in 10.0 mi WSW 8.1 mph - N/A   Overcast
11:15 AM 47.5 °F - 40.6 °F 77% 29.87 in 10.0 mi West 11.5 mph 18.4 mph N/A   Overcast
11:35 AM 48.6 °F - 40.3 °F 73% 29.87 in 10.0 mi WSW 10.4 mph 17.3 mph N/A   Overcast
11:55 AM 47.8 °F - 39.9 °F 74% 29.88 in 10.0 mi West 10.4 mph 16.1 mph N/A   Overcast
12:15 PM 47.5 °F - 39.4 °F 73% 29.87 in 10.0 mi WSW 9.2 mph - N/A   Overcast
12:35 PM 48.0 °F - 39.6 °F 73% 29.87 in 10.0 mi WSW 10.4 mph - N/A   Overcast
12:55 PM 48.0 °F - 39.2 °F 72% 29.87 in 10.0 mi WSW 9.2 mph - N/A   Overcast
1:15 PM 47.5 °F - 39.2 °F 73% 29.87 in 10.0 mi WSW 13.8 mph 18.4 mph N/A   Overcast
1:35 PM 46.9 °F - 39.9 °F 77% 29.87 in 10.0 mi West 13.8 mph 18.4 mph N/A   Overcast
1:51 PM 46.4 °F 40.4 °F 39.2 °F 76% 29.88 in 10.0 mi WSW 13.8 mph - N/A   Overcast
1:55 PM 46.0 °F 40.2 °F 39.4 °F 78% 29.88 in 10.0 mi West 12.7 mph - N/A   Overcast
2:15 PM 46.4 °F 41.5 °F 39.2 °F 76% 29.88 in 10.0 mi West 10.4 mph 18.4 mph N/A   Overcast
2:35 PM 46.4 °F 41.1 °F 38.7 °F 74% 29.88 in 10.0 mi West 11.5 mph 17.3 mph N/A   Overcast
2:55 PM 45.9 °F 39.4 °F 38.7 °F 76% 29.88 in 10.0 mi West 15.0 mph 19.6 mph N/A   Overcast
3:15 PM 45.5 °F 40.3 °F 38.7 °F 77% 29.88 in 10.0 mi West 10.4 mph 17.3 mph N/A   Overcast
3:35 PM 46.0 °F 39.9 °F 38.1 °F 74% 29.88 in 10.0 mi West 13.8 mph 17.3 mph N/A   Overcast
3:55 PM 45.9 °F 40.4 °F 37.6 °F 73% 29.88 in 10.0 mi West 11.5 mph - N/A   Overcast
4:15 PM 45.5 °F 41.3 °F 37.4 °F 73% 29.89 in 10.0 mi West 8.1 mph - N/A   Overcast
4:35 PM 45.5 °F 40.8 °F 36.9 °F 72% 29.89 in 10.0 mi West 9.2 mph - N/A   Overcast
4:55 PM 45.5 °F 42.5 °F 36.5 °F 71% 29.89 in 10.0 mi West 5.8 mph - N/A   Overcast
5:15 PM 45.5 °F 42.5 °F 36.5 °F 71% 29.89 in 10.0 mi West 5.8 mph - N/A   Overcast
5:35 PM 45.5 °F 41.8 °F 36.7 °F 71% 29.90 in 10.0 mi West 6.9 mph - N/A   Overcast
5:55 PM 45.5 °F 41.8 °F 36.5 °F 71% 29.91 in 10.0 mi West 6.9 mph - N/A   Overcast
6:15 PM 45.0 °F 41.8 °F 36.7 °F 73% 29.91 in 10.0 mi West 5.8 mph - N/A   Overcast
6:35 PM 44.8 °F 42.4 °F 36.5 °F 73% 29.91 in 10.0 mi West 4.6 mph - N/A   Overcast
6:55 PM 44.2 °F 41.0 °F 36.9 °F 75% 29.92 in 10.0 mi WSW 5.8 mph - N/A   Overcast
7:15 PM 43.7 °F 41.1 °F 36.9 °F 77% 29.93 in 10.0 mi WSW 4.6 mph - N/A   Scattered Clouds
7:35 PM 43.7 °F - 36.9 °F 77% 29.93 in 10.0 mi Calm Calm - N/A   Mostly Cloudy
7:55 PM 43.3 °F 41.7 °F 37.0 °F 78% 29.93 in 10.0 mi West 3.5 mph - N/A   Overcast
8:15 PM 43.3 °F 41.7 °F 37.2 °F 79% 29.93 in 10.0 mi WSW 3.5 mph - N/A   Overcast
8:35 PM 43.0 °F 41.3 °F 37.4 °F 81% 29.93 in 10.0 mi WSW 3.5 mph - N/A   Overcast
8:55 PM 42.8 °F 41.1 °F 37.0 °F 80% 29.93 in 10.0 mi WSW 3.5 mph - N/A   Overcast
9:15 PM 42.1 °F - 36.7 °F 81% 29.93 in 10.0 mi Calm Calm - N/A   Overcast
9:35 PM 41.5 °F - 36.5 °F 82% 29.92 in 10.0 mi Calm Calm - N/A   Scattered Clouds
9:55 PM 41.5 °F 39.6 °F 36.5 °F 82% 29.92 in 10.0 mi West 3.5 mph - N/A   Clear
10:15 PM 41.0 °F - 36.5 °F 84% 29.92 in 10.0 mi Calm Calm - N/A   Clear
10:35 PM 41.0 °F - 36.0 °F 82% 29.91 in 10.0 mi Calm Calm - N/A   Clear
10:55 PM 40.6 °F 38.6 °F 36.0 °F 83% 29.91 in 10.0 mi SW 3.5 mph - N/A   Clear
11:15 PM 40.1 °F - 35.8 °F 85% 29.91 in 10.0 mi Calm Calm - N/A   Clear
11:35 PM 39.2 °F - 36.0 °F 88% 29.91 in 10.0 mi Calm Calm - N/A   Clear
11:55 PM 39.7 °F - 36.1 °F 87% 29.91 in 10.0 mi Calm Calm - N/A   Clear